Location: Brodie Road Observatory
(45.4241°N, 74.5431°W)
Time: 08:45:12
(UTC-05:00)

Daily predictions for brighter satellites

Satellite Brightness Start Highest point End
(mag) Time Altitude Azimuth Time Altitude Azimuth Time Altitude Azimuth
PAYLOAD A 4.1 16:39:16 10° SSE 16:44:04 57° ENE 16:49:06 10° N
NOSS 3-4 (A) 4.2 16:37:38 10° NNW 16:44:09 42° NE 16:51:03 10° ESE
NOSS 3-4 (C) 4.2 16:37:44 10° NNW 16:44:15 42° NE 16:51:07 10° ESE
Genesis I 4.1 16:44:27 10° NW 16:48:18 54° WSW 16:52:07 10° SSE
Cosmos 1833 Rocket 2.9 16:44:41 10° NNW 16:50:09 47° ENE 16:55:33 10° SE
SMAP 3.4 16:47:17 10° SE 16:51:39 42° ENE 16:56:02 10° N
BREEZE-M DEB (TANK) 1.5 16:50:02 10° WSW 16:52:21 67° NNW 16:54:40 10° ENE
NOSS 3-3 (A) 4.1 16:46:34 10° SSW 16:52:47 85° SE 16:59:33 10° NE
NOSS 3-3 (C) 4.1 16:46:40 10° SSW 16:52:53 84° SE 16:59:39 10° NE
Cosmos 2366 rocket 4.0 16:46:40 10° N 16:53:03 80° E 16:59:20 10° S
Meteor 1-18 Rocket 4.3 16:51:40 10° S 16:57:20 77° E 17:03:10 10° NNE
ATLAS 2AS CENTAUR R/B 4.4 16:51:18 10° NW 16:58:50 45° WSW 17:05:54 10° S
Intercosmos 25 4.1 16:58:22 10° NNE 17:00:59 23° ENE 17:03:46 10° SE
Tiangong 1 1.8 16:58:32 10° WSW 17:01:28 44° S 17:04:22 10° E
Cosmos 2082 Rocket 2.2 16:56:02 10° NNW 17:01:42 66° ENE 17:07:21 10° SE
Okean 1 3.4 16:57:59 10° S 17:02:00 64° E 17:06:03 10° NNE
SJ-12 4.0 16:58:21 10° SSE 17:02:22 55° ENE 17:06:26 10° N
Cosmos 1346 Rocket 3.1 16:59:07 10° SSE 17:02:49 45° E 17:06:33 10° NNE
Cosmos 1544 Rocket 4.3 16:58:36 10° NNW 17:03:00 58° W 17:07:23 10° S
CZ-3B DEB 2.2 17:00:51 10° WSW 17:04:28 82° NW 17:13:45 10° NE
Cosmos 2218 Rocket 4.3 16:59:56 10° NNW 17:06:13 74° W 17:12:21 10° S
ERBS 3.9 17:03:52 10° NNW 17:06:25 19° NNE 17:08:22 13° ENE
Cosmos 1500 3.1 17:04:21 10° N 17:08:12 69° E 17:12:02 10° SSE
AQUARIUS 4.2 17:04:26 10° SSE 17:08:51 61° ENE 17:13:18 10° N
BREEZE-M DEB (TANK) 4.4 17:01:22 10° W 17:10:41 54° N 17:13:39 14° ENE
COSMO-SKYMED 1 3.9 17:09:04 10° NE 17:12:19 20° E 17:15:32 10° SE
Cosmos 921 Rocket 3.4 17:08:33 10° S 17:12:37 44° ESE 17:16:47 10° NNE
Cosmos 1743 3.2 17:09:28 10° N 17:13:06 37° ENE 17:16:42 10° SE
Cosmos 1025 Rocket 4.1 17:12:34 10° SE 17:16:06 24° E 17:19:40 10° NE
ISS -1.9 17:16:10 10° WNW 17:19:03 26° N 17:20:54 16° NE
Cosmos 1821 Rocket 4.2 17:20:01 10° N 17:25:52 46° ENE 17:31:42 10° SSE
Cosmos 1536 Rocket 4.1 17:23:08 10° SSW 17:27:34 62° W 17:32:02 10° N
Cosmos 1371 Rocket 4.4 17:24:35 10° S 17:29:39 45° ESE 17:34:18 12° NE
Meteor 2-16 Rocket 4.4 17:25:21 10° N 17:31:24 61° ENE 17:37:24 10° SSE
Meteor 2-21 Rocket 4.4 17:25:42 10° N 17:31:55 75° E 17:38:03 10° SSE
Timation 1 Rocket 4.3 17:26:12 10° SSW 17:32:07 72° ESE 17:37:57 11° NNE
Meteor 1-19 Rocket 4.4 17:27:53 10° S 17:33:33 56° E 17:39:18 10° NNE
Cosmos 1484 Rocket 2.9 17:33:53 10° SSE 17:37:27 46° ENE 17:41:02 10° N
YAOGAN 1 2.8 17:33:18 10° S 17:37:38 75° WSW 17:41:59 10° NNW
CORIOLIS 4.3 17:32:50 10° SSE 17:38:15 82° WSW 17:43:40 10° NNW
Cosmos 2058 Rocket 4.0 17:35:46 10° NNE 17:39:32 26° ENE 17:43:14 10° SE
Meteor 2-9 Rocket 4.3 17:35:05 10° N 17:40:20 48° ENE 17:45:27 10° SSE
Cosmos 2369 Rocket 3.7 17:37:47 10° SE 17:40:59 16° E 17:40:59 16° E
SPOT 3 Rocket 4.0 17:37:12 10° S 17:42:20 65° WSW 17:47:30 10° NNW
NOSS 2-1 (D) 3.3 17:38:50 10° SW 17:42:40 83° SE 17:45:29 21° NE
BREEZE M DEB (TANK) 3.2 17:34:42 10° SW 17:42:59 51° SSE 17:44:40 26° E
NOSS 2-1 (C) 3.3 17:39:29 10° SSW 17:43:20 82° SE 17:46:09 22° NE
Meteor 1-15 Rocket 4.5 17:43:57 10° N 17:49:40 49° ENE 17:55:15 10° SSE
Meteor 2-4 Rocket 3.6 17:48:23 10° S 17:53:36 57° E 17:58:52 10° NNE
Meteor 1-23 Rocket 4.3 17:49:21 10° S 17:54:51 52° E 18:00:08 11° NNE
Nadezhda 3 Rocket 4.1 17:50:46 10° SSW 17:57:00 80° W 18:03:21 10° N
Cosmos 1190 Rocket 3.9 17:51:59 10° NNW 17:57:14 68° ENE 18:02:24 10° SSE
OE (NEXTSAT) 4.3 17:54:09 10° W 17:57:45 79° N 17:58:41 47° ENE
Meteor 1-13 Rocket 4.4 17:52:42 10° SSW 17:58:26 78° W 18:04:21 10° N
Okean 2 3.8 17:55:32 10° SSE 17:59:27 42° E 18:00:16 37° ENE
Cosmos 1452 Rocket 4.5 17:55:21 10° SSE 17:59:27 26° ESE 17:59:27 26° ESE
SKYMED 2 3.5 17:57:39 19° NNE 18:00:39 62° ESE 18:04:56 10° S
NOSS 2-1 (E) 3.5 17:58:11 10° SW 18:02:07 74° NW 18:04:23 28° NNE
Cosmos 1340 4.0 18:00:56 10° SSE 18:02:53 24° SE 18:02:53 24° SE
METEOR-M 4.3 18:01:57 10° SE 18:07:00 46° ENE 18:12:06 10° N
CZ-4 R/B 4.0 18:06:08 10° SSW 18:09:28 23° W 18:12:48 10° NW
BREEZE-M DEB (TANK) 3.5 18:03:40 10° WNW 18:09:42 48° N 18:11:00 36° NE
SL-8 R/B 3.9 18:07:32 10° W 18:12:16 59° N 18:13:33 43° NE
GEOS 3 Rocket 3.8 18:12:10 38° E 18:13:25 46° NE 18:18:18 10° NNW
USA 234 3.2 18:11:46 28° NE 18:15:34 90° NW 18:22:07 10° SW
IDEFIX/ARIANE 42P 4.3 18:11:23 10° SSW 18:16:03 34° W 18:20:45 10° NNW
Cosmos 1892 Rocket 3.5 18:12:15 10° S 18:16:32 60° E 18:17:16 51° NE
CZ-2C R/B 4.4 18:13:46 10° SSW 18:18:14 31° W 18:22:49 10° NNW
Cosmos 1727 Rocket 4.1 18:12:46 10° SSE 18:18:37 47° E 18:21:21 29° NE
Cosmos 1726 Rocket 3.4 18:15:06 10° N 18:19:35 85° ENE 18:24:03 10° S
Cosmos 1666 3.2 18:18:29 10° NNW 18:22:19 60° W 18:26:09 10° S
Cosmos 2278 Rocket 4.1 18:18:16 10° W 18:22:45 24° NW 18:27:16 10° N
DMSP B5D1-3 4.4 18:20:10 23° NNE 18:23:25 77° ESE 18:28:33 10° S
Meteor 2-8 Rocket 4.3 18:21:47 10° S 18:27:51 86° E 18:34:02 10° N
Cosmos 1934 Rocket 4.3 18:28:31 10° NNW 18:34:42 68° W 18:40:57 10° S
NOSS 3-4 (A) 4.5 18:28:32 10° NW 18:35:22 56° WSW 18:42:35 10° SSE
NOSS 3-4 (C) 4.4 18:28:38 10° NW 18:35:28 56° WSW 18:42:41 10° SSE
Tiangong 1 3.0 18:34:30 10° W 18:36:16 28° WSW 18:36:16 28° WSW
Cosmos 1606 Rocket 4.4 18:35:08 10° NNW 18:39:29 50° W 18:43:48 10° SSW
ERBS 4.2 18:40:10 10° NW 18:41:47 26° NW 18:41:47 26° NW
BREEZE M DEB (TANK) 3.7 18:39:57 10° WNW 18:43:56 73° SSW 18:50:56 23° SE
Cosmos 407 Rocket 4.1 18:41:20 10° NNW 18:46:22 55° WSW 18:51:23 10° S
COSMO-SKYMED 1 3.7 18:46:16 22° NNW 18:48:39 41° WNW 18:52:43 10° SW
Meteor 1-28 Rocket 4.3 18:51:39 41° SW 18:51:39 41° SW 18:54:21 10° SSW
Cosmos 1339 Rocket 4.2 18:46:36 10° S 18:52:38 74° E 18:53:26 65° NE
Cosmos 2056 Rocket 4.3 18:47:32 10° SW 18:52:43 50° WNW 18:55:04 29° N
ISS -0.5 18:52:52 10° NW 18:53:35 15° NW 18:53:35 15° NW
Cosmos 676 Rocket 4.4 18:53:59 10° NNW 18:59:06 60° WSW 19:02:36 20° S
Cosmos 1954 Rocket 4.1 18:57:37 10° NNW 19:02:47 70° WSW 19:03:05 68° SW
BREEZE-M R/B 4.4 19:12:59 10° W 19:19:21 46° NW 19:19:21 46° NW
Cosmos 2369 Rocket 2.9 19:18:48 10° SSW 19:22:50 48° SW 19:22:50 48° SW
CZ-3A R/B 4.2 19:26:15 10° WNW 19:32:04 32° NNW 19:32:04 32° NNW
CZ-3B DEB 4.0 19:33:32 10° WNW 19:40:03 49° N 19:41:21 48° NNE
BREEZE-M DEB (TANK) 4.4 19:36:16 10° WNW 19:46:02 46° NNW 19:46:02 46° NNW
USA 234 4.2 19:59:08 39° NW 19:59:08 39° NW 20:04:14 10° W
FALCON 9 R/B 4.3 20:02:48 10° W 20:13:37 29° SW 20:13:37 29° SW
